DW8078 Weather Reports


Display with metric or nautical units.
time (UTC)temp
F
wind
direction
speed
MPH
gust
MPH
rain 1hr
in
rain 24hr
in
rain mn
in
humidity
%
barometer
mb
20180121122816 31 172 0.0 0.0 0.01 0.02 0.01 89 1014.3
20180121121314 31 172 0.0 0.0 0.00 0.01 0.00 90 1014.1
20180121115810 31 172 0.0 0.0 0.00 0.02 0.00 91 1013.9
20180121114308 30 172 0.0 0.0 0.00 0.02 0.00 92 1013.9
20180121112806 30 179 0.0 0.0 0.00 0.02 0.00 92 1013.7
20180121111304 30 220 0.0 0.0 0.00 0.02 0.00 92 1013.6
20180121105802 29 172 0.0 0.0 0.00 0.02 0.00 92 1013.4
20180121104258 29 141 0.0 0.0 0.00 0.02 0.00 92 1013.3
20180121102757 29 153 0.0 0.0 0.00 0.02 0.00 92 1013.2
20180121101257 29 164 0.0 0.0 0.00 0.02 0.00 92 1013.0
20180121095754 29 164 0.0 0.0 0.00 0.02 0.00 92 1012.9
20180121094254 29 146 0.0 0.0 0.00 0.02 0.00 92 1012.9
20180121092753 29 155 0.0 0.0 0.00 0.02 0.00 92 1012.6
20180121091250 29 155 0.0 0.0 0.00 0.02 0.00 92 1012.3
20180121085747 29 165 0.0 0.0 0.00 0.02 0.00 92 1012.1
20180121084244 29 148 0.0 0.0 0.00 0.02 0.00 92 1012.0
20180121082741 29 117 0.0 0.0 0.00 0.02 0.00 92 1011.7
20180121081239 29 155 0.0 0.0 0.00 0.02 0.00 92 1011.2
20180121075740 29 147 0.0 0.0 0.00 0.02 0.00 92 1011.1
20180121074236 29 126 0.0 0.0 0.00 0.02 0.00 92 1010.9
20180121072733 29 126 0.0 0.0 0.00 0.02 0.00 92 1010.8
20180121071234 29 126 0.0 0.0 0.00 0.02 0.00 92 1010.5
20180121065731 29 125 0.0 0.0 0.00 0.02 0.00 92 1010.3
20180121064229 28 142 0.0 0.0 0.00 0.02 0.00 92 1010.0
20180121062727 29 103 0.0 0.0 0.00 0.02 0.00 92 1009.9
20180121061225 29 123 0.0 0.0 0.00 0.02 0.00 92 1009.7
20180121055723 29 125 0.0 0.0 0.00 0.02 0.00 92 1009.4
20180121054222 29 109 0.0 0.0 0.00 0.02 0.00 92 1009.3
20180121052721 29 109 0.0 0.0 0.00 0.02 0.00 92 1009.0
20180121051219 29 164 0.0 0.0 0.00 0.02 0.00 92 1009.0
20180121045717 29 164 0.0 0.0 0.00 0.02 0.00 92 1008.9
20180121044217 29 164 0.0 0.0 0.00 0.02 0.00 92 1008.7
20180121042712 30 164 0.0 0.0 0.00 0.02 0.00 92 1008.6
20180121041211 30 165 0.0 0.0 0.00 0.02 0.00 92 1008.3
20180121035709 30 165 0.0 0.0 0.00 0.02 0.00 92 1008.2
20180121034209 30 165 0.0 0.0 0.00 0.02 0.00 92 1008.2
20180121032708 30 165 0.0 0.0 0.00 0.02 0.00 92 1008.2
20180121031207 30 165 0.0 0.0 0.00 0.02 0.00 92 1008.2
20180121025708 30 164 0.0 0.0 0.00 0.02 0.00 92 1007.9
20180121024206 30 165 0.0 0.0 0.00 0.02 0.00 92 1007.8
20180121022704 30 164 0.0 0.0 0.00 0.02 0.00 92 1007.8
20180121021206 30 164 0.0 0.0 0.00 0.02 0.00 92 1007.8
20180121015702 30 160 0.0 0.0 0.00 0.02 0.00 92 1007.7
20180121014200 30 209 0.0 0.0 0.00 0.02 0.00 92 1007.5
20180121012659 30 213 0.0 0.0 0.00 0.02 0.00 92 1007.5
20180121011159 30 213 0.0 0.0 0.00 0.02 0.00 92 1007.4
20180121005656 30 213 0.0 0.0 0.00 0.02 0.00 92 1007.3
20180121004159 30 213 0.0 0.0 0.00 0.02 0.00 92 1007.0
20180121002653 30 213 0.0 0.0 0.00 0.02 0.00 92 1007.0
20180121001154 30 213 0.0 0.0 0.00 0.02 0.00 92 1006.9
20180120235655 30 213 0.0 0.0 0.00 0.02 0.00 92 1007.0
20180120234153 30 213 0.0 0.0 0.00 0.02 0.00 92 1006.9
20180120232652 30 213 0.0 0.0 0.00 0.02 0.00 92 1006.8
20180120231152 30 215 0.0 0.0 0.00 0.02 0.00 92 1006.9
20180120225648 30 160 0.0 0.0 0.00 0.02 0.02 92 1006.9
20180120224149 31 198 0.0 0.0 0.00 0.02 0.02 92 1006.7
20180120222648 31 198 0.0 0.0 0.00 0.02 0.02 92 1006.7
20180120221147 31 198 0.0 0.0 0.00 0.02 0.02 92 1006.7
20180120215647 31 198 0.0 0.0 0.00 0.02 0.02 92 1006.7
20180120214148 31 198 0.0 0.0 0.00 0.02 0.02 92 1006.7
20180120212645 31 198 0.0 0.0 0.00 0.02 0.02 92 1006.7
20180120211145 31 198 0.0 0.0 0.00 0.02 0.02 92 1006.6
20180120205645 31 198 0.0 0.0 0.00 0.02 0.02 92 1006.6
20180120204143 31 198 0.0 0.0 0.00 0.02 0.02 92 1006.6
20180120202643 31 186 0.0 0.0 0.00 0.02 0.02 92 1006.6
20180120201143 31 188 0.0 0.0 0.00 0.02 0.02 92 1006.7
20180120195643 32 218 0.0 0.0 0.00 0.02 0.02 92 1006.8
20180120194144 32 196 0.0 0.0 0.00 0.02 0.02 92 1006.7
20180120192642 32 244 0.0 0.0 0.00 0.02 0.02 92 1006.8
20180120191142 32 244 0.0 0.0 0.00 0.02 0.02 92 1006.8
20180120185640 32 244 0.0 0.0 0.00 0.02 0.02 92 1006.8
20180120184142 32 244 0.0 0.0 0.00 0.02 0.02 92 1006.8
20180120182641 32 243 0.0 0.0 0.00 0.02 0.02 92 1006.7
20180120181142 32 243 0.0 0.0 0.00 0.02 0.02 92 1006.8
20180120175639 32 243 0.0 0.0 0.00 0.02 0.02 92 1006.8
20180120174139 32 243 0.0 0.0 0.00 0.02 0.02 92 1006.8
20180120172640 32 210 0.0 0.0 0.00 0.02 0.02 92 1006.8
20180120171136 32 261 0.0 0.0 0.00 0.02 0.02 92 1006.7
20180120165637 32 261 0.0 0.0 0.00 0.02 0.02 92 1006.8
20180120164139 32 261 0.0 0.0 0.00 0.02 0.02 92 1006.6
20180120162636 32 261 0.0 0.0 0.00 0.02 0.02 92 1006.8
20180120161134 32 261 0.0 0.0 0.00 0.02 0.02 92 1006.9
20180120155633 32 261 0.0 0.0 0.00 0.02 0.02 92 1007.0
20180120154137 32 263 0.0 0.0 0.00 0.02 0.02 92 1007.0
20180120152634 32 236 0.0 0.0 0.01 0.02 0.02 92 1007.0
20180120151132 32 238 0.0 0.0 0.01 0.02 0.02 92 1007.0
20180120145633 32 223 0.0 0.0 0.01 0.02 0.02 92 1007.0
20180120144132 32 202 0.0 0.0 0.01 0.02 0.02 92 1007.1
20180120142630 32 210 0.0 0.0 0.00 0.02 0.01 92 1007.0
20180120141131 32 206 0.0 0.0 0.00 0.02 0.01 92 1007.0
20180120135632 32 178 0.0 0.0 0.00 0.02 0.01 92 1007.1
20180120134131 32 175 0.0 0.0 0.00 0.02 0.01 92 1007.0
20180120132631 32 214 0.0 0.0 0.00 0.02 0.01 92 1007.1
20180120131128 32 252 0.0 6.0 0.00 0.02 0.01 92 1007.1
20180120125626 32 235 0.0 5.0 0.00 0.05 0.01 92 1007.2
20180120124128 32 226 0.0 7.0 0.00 0.05 0.01 92 1007.2